Flag for Netherlands Weather past 2 weeks in Rotterdam, Netherlands

Now
61 °F

Clear.


Feels Like: 61 °F
Forecast: 52 / 66 °F
Wind: 7 mph from North

Location: Rotterdam Zestienhoven Airport

Current Time: Aug 20, 2014 at 3:08:20 PM

Latest Report: Aug 20, 2014 at 2:25 PM


Visibility: N/A

Pressure: 29.98 "Hg

Humidity: 59%

Dew point: 46 °F

Location of RotterdamLocation

Historic Weather in Rotterdam — Graph

°F

Rotterdam temperature yesterday

Maximum temperature yesterday: 61 °F (at 9:55 AM)
Minimum temperature yesterday: 48 °F (at 11:55 PM)
Average temperature yesterday: 55 °F

Past Weeks' High & Low Weather Summary

 TemperatureHumidityPressure
High75 °F (Aug 5, 2:25 PM)100% (Aug 8, 6:25 AM)30.09 "Hg (Aug 8, 6:25 AM)
Low48 °F (Aug 19, 11:55 PM)39% (Aug 5, 3:55 PM)29.45 "Hg (Aug 10, 6:25 PM)
Average63 °F77%29.82 "Hg
* Reported Aug 5 1:25 PM — Aug 20 1:55 PM, Rotterdam, Weather by CustomWeather, © 2014

Note: Actual official high and low records may vary slightly from our data, if they occured in-between our weather recording intervals... More about our weather records

Advertising

Rotterdam weather history for previous 24 hours

 ConditionsComfort  
Time TempWeatherWind HumidityBarometerVisibility
1:55 PM
Aug 20
63 °FClear.9 mph59%29.98 "HgN/A
1:25 PM61 °FClear.6 mph63%29.98 "HgN/A
12:55 PM63 °FClear.5 mph59%29.98 "HgN/A
12:25 PM59 °FPassing clouds.2 mph77%30.01 "HgN/A
11:55 AM59 °FLight rain. Passing clouds.3 mph72%30.01 "HgN/A
11:25 AM57 °FPassing clouds.3 mph77%30.01 "HgN/A
10:55 AM57 °FClear.1 mph77%29.98 "HgN/A
10:25 AM55 °FPassing clouds.3 mph82%29.98 "HgN/A
9:55 AM54 °FDrizzle. Partly sunny.2 mph88%30.01 "HgN/A
9:25 AM52 °FLight rain. Partly sunny.5 mph88%29.98 "HgN/A
8:55 AM52 °FThunderstorms. Partly sunny.13 mph88%29.98 "Hg3 mi
8:25 AM54 °FLight rain. Cloudy.5 mph88%29.98 "HgN/A
7:55 AM54 °FLight rain. Scattered clouds.3 mph88%29.98 "HgN/A
7:25 AM54 °FLight rain. Mostly cloudy.6 mph82%29.95 "HgN/A
6:55 AM50 °FClear.3 mph88%29.95 "HgN/A
6:25 AM50 °FPassing clouds.7 mph88%29.95 "HgN/A
5:55 AM50 °FPassing clouds.5 mph88%29.95 "HgN/A
5:25 AM48 °FPassing clouds.6 mph87%29.95 "HgN/A
4:55 AM48 °FPassing clouds.6 mph87%29.95 "HgN/A
4:25 AM50 °FPassing clouds.6 mph82%29.95 "HgN/A
3:55 AM50 °FCool.6 mph82%29.95 "HgN/A
3:25 AM50 °FPassing clouds.6 mph82%29.95 "HgN/A
2:55 AM50 °FPassing clouds.6 mph82%29.95 "HgN/A
2:25 AM48 °FPassing clouds.6 mph87%29.95 "HgN/A
1:55 AM50 °FPassing clouds.6 mph88%29.95 "HgN/A
1:25 AM52 °FPassing clouds.5 mph88%29.95 "HgN/A
12:55 AM48 °FPassing clouds.7 mph94%29.95 "HgN/A
12:25 AM48 °FCool.6 mph87%29.95 "HgN/A
11:55 PM
Aug 19
48 °FClear.6 mph94%29.95 "HgN/A
11:25 PM52 °FPassing clouds.5 mph82%29.95 "HgN/A
10:55 PM52 °FCool.6 mph82%29.92 "HgN/A
10:25 PM54 °FPassing clouds.7 mph82%29.92 "HgN/A
9:55 PM54 °FClear.7 mph77%29.92 "HgN/A
9:25 PM54 °FClear.6 mph77%29.92 "HgN/A
8:55 PM54 °FLight rain. Passing clouds.8 mph77%29.89 "HgN/A
8:25 PM54 °FPassing clouds.5 mph72%29.89 "HgN/A
7:55 PM57 °FPassing clouds.12 mph63%29.89 "HgN/A
7:25 PM59 °FPassing clouds.13 mph59%29.89 "HgN/A
6:55 PM59 °FPassing clouds.14 mph63%29.89 "HgN/A
6:25 PM57 °FPartly sunny.14 mph67%29.89 "HgN/A
5:55 PM59 °FPassing clouds.15 mph63%29.86 "HgN/A
5:25 PM57 °FPassing clouds.10 mph67%29.86 "HgN/A
4:55 PM57 °FBroken clouds.12 mph72%29.86 "HgN/A
4:25 PM55 °FScattered clouds.13 mph82%29.86 "HgN/A
3:55 PM57 °FBroken clouds.10 mph77%29.86 "HgN/A
3:25 PM57 °FBroken clouds.15 mph72%29.83 "HgN/A
Weather by CustomWeather, © 2014

See weather overviewHow to use our weather pages